weather.gov     
National Weather Service

Terminal Aerodrome Forecast
NWS Homepage
This page is being discontinued on March 12, 2014.
The same data is available at this site. Please update your bookmarks.
Thank you, and we apologize for the inconvenience.
Please send an email to SR-SRH.Webmaster@noaa.gov with any concerns.


Current Version
Previous Version:    01  02  03  04  05  06  07  08  09  10  11  12  13  14  15  16  17  18  19  20  21  22  23  24  25  26  27  28  29  
[Printable]
355
FTUS46 KPQR 311743
TAFSLE
TAF
KSLE 311743Z 3118/0118 17007KT P6SM VCSH BKN050
     FM010900 00000KT 4SM BR SCT012 BKN080
     FM011200 VRB03KT 3SM BR OVC015
     FM011400 VRB03KT 2SM BR SCT001 OVC007=




355
FTUS46 KPQR 311743
TAFSLE
TAF
KSLE 311743Z 3118/0118 17007KT P6SM VCSH BKN050
     FM010900 00000KT 4SM BR SCT012 BKN080
     FM011200 VRB03KT 3SM BR OVC015
     FM011400 VRB03KT 2SM BR SCT001 OVC007=


U.S. Dept. of Commerce
NOAA National Weather Service
1325 East West Highway
Silver Spring, MD 20910
E-mail: w-nws.webmaster@noaa.gov
Page last modified: May 16, 2007
NATIONAL WEATHER SERVICE: for Safety, for Work, for Fun - FOR LIFE